TimeCST,TemperatureF,Dew PointF,Humidity,Sea Level PressureIn,VisibilityMPH,Wind Direction,Wind SpeedMPH,Gust SpeedMPH,PrecipitationIn,Events,Conditions,WindDirDegrees,DateUTC
12:52 AM,15.1,10.0,80,30.14,10.0,Calm,Calm,-,N/A,,Partly Cloudy,0,2013-03-04 06:52:00
2:52 AM,15.1,9.0,77,30.15,10.0,NW,4.6,-,N/A,,Overcast,310,2013-03-04 08:52:00
3:52 AM,16.0,9.0,74,30.15,10.0,Calm,Calm,-,N/A,,Mostly Cloudy,0,2013-03-04 09:52:00
4:28 AM,15.8,8.6,73,30.13,10.0,WNW,4.6,-,N/A,,Overcast,300,2013-03-04 10:28:00
4:52 AM,15.8,8.6,73,30.13,10.0,WNW,3.5,-,N/A,,Overcast,300,2013-03-04 10:52:00
5:52 AM,17.1,10.0,74,30.17,10.0,Calm,Calm,-,N/A,,Overcast,0,2013-03-04 11:52:00
6:02 AM,17.6,10.4,73,30.13,10.0,NW,3.5,-,N/A,,Overcast,310,2013-03-04 12:02:00
6:52 AM,18.0,10.9,74,30.16,10.0,Calm,Calm,-,N/A,,Mostly Cloudy,0,2013-03-04 12:52:00
7:52 AM,24.1,16.0,71,30.16,10.0,NNE,4.6,-,N/A,,Mostly Cloudy,20,2013-03-04 13:52:00
8:31 AM,26.6,19.4,74,30.12,1.0,North,4.6,-,N/A,,Mostly Cloudy,10,2013-03-04 14:31:00
8:38 AM,28.4,21.2,74,30.12,10.0,NNE,4.6,-,N/A,,Mostly Cloudy,30,2013-03-04 14:38:00
8:52 AM,28.9,23.0,78,30.15,10.0,ENE,4.6,-,N/A,,Mostly Cloudy,70,2013-03-04 14:52:00
9:52 AM,28.9,19.9,69,30.15,10.0,East,8.1,-,N/A,,Mostly Cloudy,80,2013-03-04 15:52:00
10:52 AM,30.0,19.9,66,30.14,10.0,East,6.9,-,N/A,,Mostly Cloudy,90,2013-03-04 16:52:00
11:52 AM,30.0,21.0,69,30.13,10.0,ESE,10.4,-,N/A,,Mostly Cloudy,110,2013-03-04 17:52:00
12:52 PM,30.0,21.0,69,30.12,10.0,East,10.4,-,N/A,,Mostly Cloudy,100,2013-03-04 18:52:00
1:52 PM,30.0,21.9,72,30.11,10.0,East,11.5,-,N/A,,Overcast,80,2013-03-04 19:52:00
2:52 PM,28.9,23.0,78,30.11,10.0,East,16.1,-,N/A,,Overcast,80,2013-03-04 20:52:00
3:50 PM,28.4,23.0,80,30.07,10.0,ENE,12.7,-,N/A,,Overcast,70,2013-03-04 21:50:00
3:52 PM,28.0,21.9,78,30.11,10.0,ENE,12.7,-,N/A,,Overcast,70,2013-03-04 21:52:00
4:16 PM,28.4,21.2,74,30.06,10.0,ENE,10.4,-,N/A,,Overcast,70,2013-03-04 22:16:00
4:48 PM,28.4,21.2,74,30.06,10.0,ENE,9.2,-,N/A,,Mostly Cloudy,60,2013-03-04 22:48:00
4:52 PM,28.0,21.0,75,30.09,10.0,ENE,10.4,-,N/A,,Mostly Cloudy,60,2013-03-04 22:52:00
5:52 PM,28.0,21.0,75,30.09,10.0,ENE,10.4,-,N/A,,Mostly Cloudy,60,2013-03-04 23:52:00
6:52 PM,28.9,21.0,72,30.10,10.0,East,9.2,-,N/A,,Overcast,80,2013-03-05 00:52:00
7:52 PM,30.0,21.0,69,30.09,10.0,East,11.5,-,N/A,,Mostly Cloudy,80,2013-03-05 01:52:00
8:52 PM,30.0,21.0,69,30.09,10.0,East,12.7,-,N/A,,Overcast,80,2013-03-05 02:52:00
9:52 PM,30.9,21.9,69,30.10,10.0,East,10.4,-,N/A,,Overcast,80,2013-03-05 03:52:00
10:52 PM,30.9,23.0,72,30.09,10.0,East,10.4,-,0.00,Snow,Light Snow,80,2013-03-05 04:52:00
11:30 PM,32.0,24.8,75,30.05,9.0,East,10.4,-,0.00,,Overcast,80,2013-03-05 05:30:00
11:52 PM,32.0,24.1,73,30.07,10.0,East,10.4,-,0.00,,Overcast,90,2013-03-05 05:52:00